Time,TemperatureF,DewpointF,PressureIn,WindDirection,WindDirectionDegrees,WindSpeedMPH,WindSpeedGustMPH,Humidity,HourlyPrecipIn,Conditions,Clouds,dailyrainin,SoftwareType,DateUTC
2014-10-30 00:02:00,38.7,36.8,30.11,SSW,208,0.0,0.0,93,0.00,,---,0.00,VWS V14.01,2014-10-30 05:02:00,
2014-10-30 00:07:00,38.2,36.4,30.11,SSW,208,0.0,0.0,93,0.00,,---,0.00,VWS V14.01,2014-10-30 05:07:00,
2014-10-30 00:12:00,37.7,35.9,30.11,SSW,208,0.0,0.0,93,0.00,,---,0.00,VWS V14.01,2014-10-30 05:12:00,
2014-10-30 00:17:00,37.4,35.8,30.12,SSW,208,0.0,0.0,94,0.00,,---,0.00,VWS V14.01,2014-10-30 05:17:00,
2014-10-30 00:22:00,37.2,35.6,30.12,SSW,208,0.0,0.0,94,0.00,,---,0.00,VWS V14.01,2014-10-30 05:22:00,
2014-10-30 00:27:00,37.3,36.0,30.12,SSW,208,0.0,0.0,95,0.00,,---,0.00,VWS V14.01,2014-10-30 05:27:00,
2014-10-30 00:32:00,37.4,36.1,30.12,SSW,208,0.0,0.0,95,0.00,,---,0.00,VWS V14.01,2014-10-30 05:32:00,
2014-10-30 00:37:00,37.6,36.6,30.12,SSW,208,0.0,0.0,96,0.00,,---,0.00,VWS V14.01,2014-10-30 05:37:00,
2014-10-30 00:42:00,37.7,36.4,30.12,SSW,208,0.0,0.0,95,0.00,,---,0.00,VWS V14.01,2014-10-30 05:42:00,
2014-10-30 00:47:00,37.5,36.2,30.12,SSW,208,0.0,0.0,95,0.00,,---,0.00,VWS V14.01,2014-10-30 05:47:00,
2014-10-30 00:52:00,37.1,35.8,30.12,SSW,208,0.0,0.0,95,0.00,,---,0.00,VWS V14.01,2014-10-30 05:52:00,
2014-10-30 00:57:00,36.8,35.5,30.12,SSW,208,0.0,0.0,95,0.00,,---,0.00,VWS V14.01,2014-10-30 05:57:00,
2014-10-30 01:02:00,36.8,35.8,30.12,SSW,208,0.0,0.0,96,0.00,,---,0.00,VWS V14.01,2014-10-30 06:02:00,
2014-10-30 01:07:00,37.1,36.3,30.12,SSW,208,0.0,0.0,97,0.00,,---,0.00,VWS V14.01,2014-10-30 06:07:00,
2014-10-30 01:12:00,37.3,36.5,30.12,SSW,208,0.0,0.0,97,0.00,,---,0.00,VWS V14.01,2014-10-30 06:12:00,
2014-10-30 01:17:00,37.5,36.7,30.12,SSW,208,0.0,0.0,97,0.00,,---,0.00,VWS V14.01,2014-10-30 06:17:00,
2014-10-30 01:22:00,37.7,36.7,30.12,SSW,208,0.0,0.0,96,0.00,,---,0.00,VWS V14.01,2014-10-30 06:22:00,
2014-10-30 01:27:00,37.7,36.7,30.12,SSW,208,0.0,0.0,96,0.00,,---,0.00,VWS V14.01,2014-10-30 06:27:00,
2014-10-30 01:32:00,37.8,36.8,30.12,SSW,208,0.0,0.0,96,0.00,,---,0.00,VWS V14.01,2014-10-30 06:32:00,
2014-10-30 01:37:00,37.8,36.8,30.12,SSW,208,0.0,0.0,96,0.00,,---,0.00,VWS V14.01,2014-10-30 06:37:00,
2014-10-30 01:42:00,37.4,36.4,30.12,SSW,208,0.0,0.0,96,0.00,,---,0.00,VWS V14.01,2014-10-30 06:42:00,
2014-10-30 01:47:00,37.3,36.3,30.12,SSW,208,0.0,0.0,96,0.00,,---,0.00,VWS V14.01,2014-10-30 06:47:00,
2014-10-30 01:52:00,37.3,36.3,30.12,SSW,208,0.0,0.0,96,0.00,,---,0.00,VWS V14.01,2014-10-30 06:52:00,
2014-10-30 01:57:00,37.2,36.2,30.12,SSW,208,0.0,0.0,96,0.00,,---,0.00,VWS V14.01,2014-10-30 06:57:00,
2014-10-30 02:02:00,36.8,35.8,30.12,SSW,208,0.0,0.0,96,0.00,,---,0.00,VWS V14.01,2014-10-30 07:02:00,
2014-10-30 02:07:00,36.6,35.6,30.12,SSW,208,0.0,0.0,96,0.00,,---,0.00,VWS V14.01,2014-10-30 07:07:00,
2014-10-30 02:12:00,36.4,35.4,30.12,SSW,208,0.0,0.0,96,0.00,,---,0.00,VWS V14.01,2014-10-30 07:12:00,
2014-10-30 02:17:00,36.1,35.1,30.12,SSW,208,0.0,0.0,96,0.00,,---,0.00,VWS V14.01,2014-10-30 07:17:00,
2014-10-30 02:22:00,36.1,35.1,30.12,SSW,208,0.0,0.0,96,0.00,,---,0.00,VWS V14.01,2014-10-30 07:22:00,
2014-10-30 02:27:00,36.1,35.1,30.12,SSW,207,0.0,0.0,96,0.00,,---,0.00,VWS V14.01,2014-10-30 07:27:00,
2014-10-30 02:32:00,36.0,35.0,30.11,SSW,208,0.0,0.0,96,0.00,,---,0.00,VWS V14.01,2014-10-30 07:32:00,
2014-10-30 02:37:00,35.7,34.7,30.11,SSW,208,0.0,0.0,96,0.00,,---,0.00,VWS V14.01,2014-10-30 07:37:00,
2014-10-30 02:42:00,35.5,34.5,30.11,SSW,208,0.0,0.0,96,0.00,,---,0.00,VWS V14.01,2014-10-30 07:42:00,
2014-10-30 02:47:00,35.4,34.4,30.11,SSW,208,0.0,0.0,96,0.00,,---,0.00,VWS V14.01,2014-10-30 07:47:00,
2014-10-30 02:52:00,35.5,34.5,30.11,SSW,208,0.0,0.0,96,0.00,,---,0.00,VWS V14.01,2014-10-30 07:52:00,
2014-10-30 02:57:00,35.4,34.4,30.11,SSW,208,0.0,0.0,96,0.00,,---,0.00,VWS V14.01,2014-10-30 07:57:00,
2014-10-30 03:02:00,35.3,34.3,30.11,SSW,208,0.0,0.0,96,0.00,,---,0.00,VWS V14.01,2014-10-30 08:02:00,
2014-10-30 03:07:00,35.2,34.4,30.11,SSW,208,0.0,0.0,97,0.00,,---,0.00,VWS V14.01,2014-10-30 08:07:00,
2014-10-30 03:12:00,34.9,34.1,30.11,SSW,208,0.0,0.0,97,0.00,,---,0.00,VWS V14.01,2014-10-30 08:12:00,
2014-10-30 03:17:00,35.0,34.2,30.11,SSW,208,0.0,0.0,97,0.00,,---,0.00,VWS V14.01,2014-10-30 08:17:00,
2014-10-30 03:22:00,35.0,34.2,30.11,SSW,208,0.0,0.0,97,0.00,,---,0.00,VWS V14.01,2014-10-30 08:22:00,
2014-10-30 03:27:00,34.7,33.7,30.11,SSW,208,0.0,0.0,96,0.00,,---,0.00,VWS V14.01,2014-10-30 08:27:00,
2014-10-30 03:32:00,34.4,33.4,30.11,SSW,208,0.0,0.0,96,0.00,,---,0.00,VWS V14.01,2014-10-30 08:32:00,
2014-10-30 03:37:00,34.2,33.2,30.11,SSW,208,0.0,0.0,96,0.00,,---,0.00,VWS V14.01,2014-10-30 08:37:00,
2014-10-30 03:42:00,34.0,33.0,30.11,SSW,208,0.0,0.0,96,0.00,,---,0.00,VWS V14.01,2014-10-30 08:42:00,
2014-10-30 03:47:00,33.9,33.1,30.11,SSW,208,0.0,0.0,97,0.00,,---,0.00,VWS V14.01,2014-10-30 08:47:00,
2014-10-30 03:52:00,34.0,33.2,30.11,SSW,208,0.0,0.0,97,0.00,,---,0.00,VWS V14.01,2014-10-30 08:52:00,
2014-10-30 03:57:00,34.0,33.2,30.11,SSW,208,0.0,0.0,97,0.00,,---,0.00,VWS V14.01,2014-10-30 08:57:00,
2014-10-30 04:02:00,33.9,32.9,30.11,SSW,208,0.0,0.0,96,0.00,,---,0.00,VWS V14.01,2014-10-30 09:02:00,
2014-10-30 04:07:00,33.6,32.6,30.11,SSW,208,0.0,0.0,96,0.00,,---,0.00,VWS V14.01,2014-10-30 09:07:00,
2014-10-30 04:12:00,33.6,32.8,30.11,SSW,208,0.0,0.0,97,0.00,,---,0.00,VWS V14.01,2014-10-30 09:12:00,
2014-10-30 04:17:00,33.9,33.4,30.11,SSW,208,0.0,0.0,98,0.00,,---,0.00,VWS V14.01,2014-10-30 09:17:00,
2014-10-30 04:22:00,34.0,33.5,30.12,SSW,208,0.0,0.0,98,0.00,,---,0.00,VWS V14.01,2014-10-30 09:22:00,
2014-10-30 04:27:00,34.1,33.6,30.12,SSW,208,0.0,0.0,98,0.00,,---,0.00,VWS V14.01,2014-10-30 09:27:00,
2014-10-30 04:32:00,34.1,33.6,30.12,SSW,208,0.0,0.0,98,0.00,,---,0.00,VWS V14.01,2014-10-30 09:32:00,
2014-10-30 04:37:00,34.0,33.2,30.12,SSW,208,0.0,0.0,97,0.00,,---,0.00,VWS V14.01,2014-10-30 09:37:00,
2014-10-30 04:42:00,33.9,33.1,30.12,SSW,208,0.0,0.0,97,0.00,,---,0.00,VWS V14.01,2014-10-30 09:42:00,
2014-10-30 04:47:00,33.7,32.9,30.12,SSW,208,0.0,0.0,97,0.00,,---,0.00,VWS V14.01,2014-10-30 09:47:00,
2014-10-30 04:52:00,33.5,32.7,30.12,SSW,208,0.0,0.0,97,0.00,,---,0.00,VWS V14.01,2014-10-30 09:52:00,
2014-10-30 04:57:00,33.2,32.4,30.12,SSW,208,0.0,0.0,97,0.00,,---,0.00,VWS V14.01,2014-10-30 09:57:00,
2014-10-30 05:02:00,33.4,32.6,30.12,SSW,208,0.0,0.0,97,0.00,,---,0.00,VWS V14.01,2014-10-30 10:02:00,
2014-10-30 05:07:00,33.4,32.6,30.12,SSW,208,0.0,0.0,97,0.00,,---,0.00,VWS V14.01,2014-10-30 10:07:00,
2014-10-30 05:12:00,33.2,32.4,30.12,SSW,208,0.0,0.0,97,0.00,,---,0.00,VWS V14.01,2014-10-30 10:12:00,
2014-10-30 05:17:00,33.1,32.3,30.13,SSW,208,0.0,0.0,97,0.00,,---,0.00,VWS V14.01,2014-10-30 10:17:00,
2014-10-30 05:22:00,33.1,32.3,30.13,SSW,208,0.0,0.0,97,0.00,,---,0.00,VWS V14.01,2014-10-30 10:22:00,
2014-10-30 05:27:00,32.9,32.1,30.13,SSW,208,0.0,0.0,97,0.00,,---,0.00,VWS V14.01,2014-10-30 10:27:00,
2014-10-30 05:32:00,32.8,32.0,30.13,SSW,208,0.0,0.0,97,0.00,,---,0.00,VWS V14.01,2014-10-30 10:32:00,
2014-10-30 05:37:00,33.1,32.3,30.13,SSW,208,0.0,0.0,97,0.00,,---,0.00,VWS V14.01,2014-10-30 10:37:00,
2014-10-30 05:42:00,33.0,32.2,30.13,SSW,208,0.0,0.0,97,0.00,,---,0.00,VWS V14.01,2014-10-30 10:42:00,
2014-10-30 05:47:00,32.9,32.1,30.13,SSW,208,0.0,0.0,97,0.00,,---,0.00,VWS V14.01,2014-10-30 10:47:00,
2014-10-30 05:52:00,33.1,32.3,30.13,SSW,208,0.0,0.0,97,0.00,,---,0.00,VWS V14.01,2014-10-30 10:52:00,
2014-10-30 05:57:00,33.1,32.3,30.13,SSW,208,0.0,0.0,97,0.00,,---,0.00,VWS V14.01,2014-10-30 10:57:00,
2014-10-30 06:02:00,33.0,32.2,30.13,SSW,208,0.0,0.0,97,0.00,,---,0.00,VWS V14.01,2014-10-30 11:02:00,
2014-10-30 06:07:00,32.9,32.1,30.13,SSW,208,0.0,0.0,97,0.00,,---,0.00,VWS V14.01,2014-10-30 11:07:00,
2014-10-30 06:12:00,32.7,31.9,30.13,SSW,208,0.0,0.0,97,0.00,,---,0.00,VWS V14.01,2014-10-30 11:12:00,
2014-10-30 06:17:00,32.6,31.8,30.13,SSW,208,0.0,0.0,97,0.00,,---,0.00,VWS V14.01,2014-10-30 11:17:00,
2014-10-30 06:22:00,32.3,31.5,30.13,SSW,208,0.0,0.0,97,0.00,,---,0.00,VWS V14.01,2014-10-30 11:22:00,
2014-10-30 06:27:00,32.0,31.2,30.13,SSW,208,0.0,0.0,97,0.00,,---,0.00,VWS V14.01,2014-10-30 11:27:00,
2014-10-30 06:32:00,31.9,31.1,30.14,SSW,208,0.0,0.0,97,0.00,,---,0.00,VWS V14.01,2014-10-30 11:32:00,
2014-10-30 06:37:00,31.8,31.0,30.14,SSW,208,0.0,0.0,97,0.00,,---,0.00,VWS V14.01,2014-10-30 11:37:00,
2014-10-30 06:42:00,31.6,30.9,30.14,SSW,208,0.0,0.0,97,0.00,,---,0.00,VWS V14.01,2014-10-30 11:42:00,
2014-10-30 06:47:00,31.6,30.9,30.14,SSW,208,0.0,0.0,97,0.00,,---,0.00,VWS V14.01,2014-10-30 11:47:00,
2014-10-30 06:52:00,32.0,31.2,30.14,SSW,208,0.0,0.0,97,0.00,,---,0.00,VWS V14.01,2014-10-30 11:52:00,
2014-10-30 06:57:00,32.1,31.4,30.14,SSW,208,0.0,0.0,97,0.00,,---,0.00,VWS V14.01,2014-10-30 11:57:00,
2014-10-30 07:02:00,32.1,31.6,30.14,SSW,208,0.0,0.0,98,0.00,,---,0.00,VWS V14.01,2014-10-30 12:02:00,
2014-10-30 07:07:00,32.1,31.6,30.14,SSW,208,0.0,0.0,98,0.00,,---,0.00,VWS V14.01,2014-10-30 12:07:00,
2014-10-30 07:12:00,32.1,31.4,30.14,SSW,208,0.0,0.0,97,0.00,,---,0.00,VWS V14.01,2014-10-30 12:12:00,
2014-10-30 07:17:00,32.1,31.4,30.14,SSW,208,0.0,0.0,97,0.00,,---,0.00,VWS V14.01,2014-10-30 12:17:00,
2014-10-30 07:22:00,32.1,31.4,30.15,SSW,208,0.0,0.0,97,0.00,,---,0.00,VWS V14.01,2014-10-30 12:22:00,
2014-10-30 07:27:00,32.0,31.2,30.15,SSW,208,0.0,0.0,97,0.00,,---,0.00,VWS V14.01,2014-10-30 12:27:00,
2014-10-30 07:32:00,31.9,31.4,30.15,SSW,208,0.0,0.0,98,0.00,,---,0.00,VWS V14.01,2014-10-30 12:32:00,
2014-10-30 07:37:00,32.1,31.6,30.15,SSW,208,0.0,0.0,98,0.00,,---,0.00,VWS V14.01,2014-10-30 12:37:00,
2014-10-30 07:42:00,32.3,31.8,30.15,SSW,208,0.0,0.0,98,0.00,,---,0.00,VWS V14.01,2014-10-30 12:42:00,
2014-10-30 07:47:00,32.6,32.1,30.15,SSW,208,0.0,0.0,98,0.00,,---,0.00,VWS V14.01,2014-10-30 12:47:00,
2014-10-30 07:52:00,32.8,32.3,30.15,SSW,208,0.0,0.0,98,0.00,,---,0.00,VWS V14.01,2014-10-30 12:52:00,
2014-10-30 07:57:00,33.2,32.7,30.15,SSW,208,0.0,0.0,98,0.00,,---,0.00,VWS V14.01,2014-10-30 12:57:00,
2014-10-30 08:02:00,33.4,32.9,30.15,SSW,208,0.0,0.0,98,0.00,,---,0.00,VWS V14.01,2014-10-30 13:02:00,
2014-10-30 08:07:00,34.2,33.7,30.15,SSW,208,0.0,0.0,98,0.00,,---,0.00,VWS V14.01,2014-10-30 13:07:00,
2014-10-30 08:12:00,35.9,35.4,30.15,SSW,208,0.0,0.0,98,0.00,,---,0.00,VWS V14.01,2014-10-30 13:12:00,
2014-10-30 08:17:00,37.9,37.6,30.15,SSW,208,0.0,0.0,99,0.00,,---,0.00,VWS V14.01,2014-10-30 13:17:00,
2014-10-30 08:22:00,39.8,39.5,30.15,SSW,208,0.0,0.0,99,0.00,,---,0.00,VWS V14.01,2014-10-30 13:22:00,
2014-10-30 08:27:00,40.8,40.5,30.15,SSW,208,0.0,0.0,99,0.00,,---,0.00,VWS V14.01,2014-10-30 13:27:00,